[[{"header":{"parameterUnit":"m.s-1","parameterCategory":1,"la1":30.2992,"la2":30.254,"lo1":-89.0895,"lo2":-89.0443,"dy":0.0025,"dx":0.0025,"nx":19,"ny":19,"refTime":"2026-04-22T03:00:00:Z","depth":0,"parameterNumber":2,"parameterNumberName":"U-component_of_WINDS"},"data":[0,0,0,-3.1751,-3.1754,-3.1873,-3.1873,-3.2037,-3.2039,0,0,0,0,0,0,0,0,0,0,0,-3.1724,-3.1726,-3.1751,-3.1754,-3.1873,-3.1873,-3.2037,-3.2039,0,0,0,0,0,0,0,0,0,0,0,-3.1724,-3.1725,-3.1727,-3.1755,-3.1873,-3.1873,-3.2037,-3.1942,0,0,0,0,0,0,0,0,0,0,-3.1825,-3.1809,-3.1725,-3.1727,-3.1755,-3.1873,-3.1873,-3.1938,-3.1948,-3.1989,0,-3.2028,0,-3.2037,-3.2051,-3.2051,0,0,0,-3.1748,-3.18,-3.1824,-3.1727,-3.1756,-3.1872,-3.1817,-3.1944,-3.1956,-3.2003,-3.2031,-3.2036,-3.2039,-3.2052,-3.2053,-3.2311,-3.2313,0,0,-3.1741,-3.175,-3.1816,-3.1833,-3.1816,-3.1814,-3.1821,-3.1951,-3.1981,-3.2031,-3.204,-3.2042,-3.2053,-3.2055,-3.231,-3.2312,0,0,0,-3.1727,-3.1746,-3.1767,-3.1826,-3.1847,-3.1817,-3.1826,-3.1975,-3.1981,-3.2042,-3.2044,-3.2054,-3.2056,-3.2308,-3.2311,-3.2393,0,0,0,-3.1722,-3.1737,-3.1764,-3.1771,-3.1845,-3.1913,-3.1847,-3.1972,-3.1986,-3.2043,-3.2054,-3.2058,-3.2307,-3.2309,-3.2388,-3.2431,0,0,0,-3.1714,-3.1736,-3.1756,-3.1771,-3.1823,-3.191,-3.1924,-3.1975,-3.1988,-3.2052,-3.2059,-3.2305,-3.2309,-3.2382,-3.2422,-3.2501,0,0,0,-3.1707,-3.1828,-3.1758,-3.1894,-3.1822,-3.1961,-3.1923,-3.2026,-3.209,-3.2055,-3.2307,-3.231,-3.2381,-3.2417,-3.2495,-3.2567,-3.2599,0,0,-3.1865,-3.1848,-3.1927,-3.1868,-3.2022,-3.1942,-3.2109,-3.2159,-3.2157,-3.226,-3.2266,-3.2389,-3.2421,-3.2499,-3.2773,-3.2798,0,0,0,-3.198,-3.2038,-3.2077,-3.2139,-3.2181,-3.222,-3.2244,-3.2262,-3.2349,-3.2212,-3.2439,-3.2458,-3.2503,-3.2537,-3.2559,-3.2596,-3.2327,-3.2326,-3.2326,-3.2216,-3.2207,-3.2338,-3.2344,-3.2404,-3.2428,-3.2476,-3.2505,-3.2478,-3.2532,-3.2562,-3.273,-3.277,-3.2786,-3.2825,-3.2601,-3.2601,-3.2601,-3.2601,-3.2446,-3.2525,-3.2487,-3.26,-3.259,-3.2684,-3.2712,-3.269,-3.2775,-3.2706,-3.2746,-3.2669,-3.2813,-3.2847,-3.2608,-3.2607,-3.2606,-3.2605,-3.2605,-3.2599,-3.2635,-3.2656,-3.2745,-3.2814,-3.2815,-3.2899,-3.2887,-3.2876,-3.2915,-3.2945,-3.2943,-3.2939,-3.293,-3.2931,-3.2932,-3.2932,-3.2933,-3.2933,-3.2748,-3.2769,-3.2842,-3.2897,-3.2935,-3.2983,-3.3009,-3.3045,-3.3083,-3.3067,-3.3067,-3.3034,-3.283,-3.2778,-3.2942,-3.294,-3.2939,-3.2938,-3.2938,-3.2982,-3.2927,-3.304,-3.3078,-3.3141,-3.321,-3.3194,-3.327,-3.3298,-3.334,-3.3299,-3.3151,-3.3132,-3.3115,-3.3072,-3.3302,-3.3302,-3.3302,-3.3302,-3.311,-3.31,-3.3211,-3.3273,-3.3332,-3.3329,-3.3455,-3.3476,-3.3489,-3.3506,-3.3471,-3.3413,-3.3397,-3.3388,-3.3365,-3.3324,-3.3613,-3.3613,-3.3614,-3.3253,-3.3248,-3.3358,-3.337,-3.3419,-3.346,-3.3578,-3.365,-3.3653,-3.3626,-3.3519,-3.3505,-3.3412,-3.3383,-3.3351,-3.3316,-3.3241,0,0]},{"header":{"parameterUnit":"m.s-1","parameterCategory":1,"la1":30.2992,"la2":30.254,"lo1":-89.0895,"lo2":-89.0443,"dy":0.0025,"dx":0.0025,"nx":19,"ny":19,"refTime":"2026-04-22T03:00:00:Z","depth":0,"parameterNumber":3,"parameterNumberName":"V-component_of_WINDS"},"data":[0,0,0,1.0303,1.0301,1.0207,1.0206,1.0121,1.012,0,0,0,0,0,0,0,0,0,0,0,1.0354,1.0354,1.0303,1.0301,1.0207,1.0206,1.0121,1.012,0,0,0,0,0,0,0,0,0,0,0,1.0354,1.0354,1.0354,1.0301,1.0207,1.0206,1.0121,1.0179,0,0,0,0,0,0,0,0,0,0,1.0264,1.0335,1.0354,1.0354,1.03,1.0207,1.0206,1.0181,1.0175,1.0179,0,1.019,0,1.0154,1.0117,1.0117,0,0,0,1.0283,1.034,1.0294,1.0354,1.03,1.0207,1.0244,1.0177,1.0171,1.0172,1.0189,1.0184,1.0153,1.0117,1.0116,1.0203,1.0205,0,0,1.0288,1.0349,1.0298,1.0291,1.031,1.0247,1.0242,1.0173,1.0195,1.0188,1.0182,1.0152,1.0116,1.0116,1.0202,1.0204,0,0,0,1.0315,1.0353,1.0308,1.0295,1.0276,1.0245,1.0238,1.0198,1.0178,1.018,1.0151,1.0116,1.0115,1.0201,1.0203,1.0325,0,0,0,1.0318,1.0369,1.0311,1.0347,1.0278,1.0236,1.0266,1.0183,1.0173,1.0151,1.0116,1.0115,1.0199,1.0202,1.0318,1.0372,0,0,0,1.0352,1.0372,1.0367,1.035,1.0312,1.0236,1.0211,1.0179,1.0156,1.0117,1.0115,1.0198,1.0201,1.0312,1.0362,1.0413,0,0,0,1.0405,1.0475,1.037,1.0436,1.0314,1.0313,1.0211,1.0206,1.0188,1.0116,1.0199,1.0203,1.0311,1.0356,1.0408,1.0467,1.0498,0,0,1.0526,1.0491,1.0525,1.0429,1.0463,1.0322,1.0372,1.0296,1.0236,1.0217,1.0218,1.032,1.0361,1.0412,1.0649,1.0674,0,0,0,1.0584,1.061,1.0605,1.0592,1.0538,1.0495,1.0405,1.0377,1.0359,1.024,1.035,1.0373,1.04,1.0426,1.0447,1.0467,1.0217,1.0217,1.0216,1.0841,1.0763,1.0814,1.0726,1.0714,1.0622,1.0605,1.0551,1.0473,1.0501,1.0495,1.0648,1.0681,1.0696,1.0718,1.052,1.052,1.0521,1.0521,1.1012,1.1036,1.0934,1.0947,1.0864,1.0873,1.0788,1.0733,1.0729,1.0646,1.0666,1.0582,1.0726,1.0741,1.0529,1.0528,1.0527,1.0526,1.0525,1.1172,1.117,1.1136,1.111,1.1098,1.1004,1.1007,1.0929,1.0856,1.0876,1.0862,1.0859,1.0848,1.0875,1.0875,1.0876,1.0876,1.0877,1.0877,1.1351,1.1309,1.1322,1.1272,1.1254,1.122,1.113,1.111,1.1067,1.101,1.101,1.093,1.0755,1.0713,1.0885,1.0884,1.0883,1.0882,1.0881,1.1553,1.1495,1.1515,1.1497,1.1433,1.1427,1.1329,1.1295,1.1266,1.127,1.1186,1.1069,1.1027,1.101,1.0974,1.1203,1.1203,1.1203,1.1203,1.1688,1.166,1.1663,1.164,1.1609,1.1524,1.1547,1.1479,1.1398,1.1375,1.1331,1.1277,1.1263,1.1229,1.1207,1.1173,1.1447,1.1447,1.1447,1.1808,1.1774,1.1809,1.1732,1.1677,1.1631,1.1651,1.1627,1.1523,1.1455,1.1356,1.1346,1.1258,1.1234,1.1163,1.1131,1.1066,0,0]}]]